GW4572 Weather Reports


Display with metric or nautical units.
time (UTC)temp
F
wind
direction
speed
MPH
gust
MPH
rain 1hr
in
rain 24hr
in
rain mn
in
humidity
%
barometer
mb
20260505072035 53 239 3.0 3.0 0.00 0.02 0.02 81 1014.6
20260505071530 53 235 2.0 3.0 0.00 0.02 0.02 81 1014.9
20260505071029 54 266 4.0 11.0 0.12 0.02 0.02 79 1014.9
20260505070526 55 278 10.0 14.0 0.05 0.01 0.01 76 1015.1
20260505070022 58 250 6.0 9.0 0.00 0.00 0.00 60 1014.8
20260505065518 57 271 7.0 9.0 0.00 0.00 0.00 61 1014.7
20260505065014 56 256 5.0 7.0 0.00 0.00 0.00 63 1014.6
20260505064511 55 242 4.0 4.0 0.00 0.00 0.00 64 1014.5
20260505064010 55 259 2.0 3.0 0.00 0.00 0.00 66 1014.6
20260505063507 53 248 2.0 3.0 0.00 0.00 0.00 67 1014.5
20260505063008 54 245 2.0 3.0 0.00 0.00 0.00 68 1014.4
20260505062505 53 244 2.0 3.0 0.00 0.00 0.00 68 1014.7
20260505062002 54 242 2.0 3.0 0.00 0.00 0.00 67 1014.5
20260505061459 53 249 2.0 3.0 0.00 0.00 0.00 69 1014.5
20260505060957 52 245 3.0 3.0 0.00 0.00 0.00 70 1014.5
20260505060454 52 246 2.0 3.0 0.00 0.00 0.00 70 1014.6
20260505055950 52 244 2.0 3.0 0.00 0.00 0.00 70 1014.6
20260505055446 52 243 2.0 3.0 0.00 0.00 0.00 69 1014.7
20260505054943 52 256 2.0 3.0 0.00 0.00 0.00 71 1014.6
20260505054441 52 260 2.0 3.0 0.00 0.00 0.00 70 1014.7
20260505053938 53 261 2.0 2.0 0.00 0.00 0.00 70 1014.7
20260505053435 53 261 2.0 2.0 0.00 0.00 0.00 70 1014.7
20260505052932 53 261 1.0 3.0 0.00 0.00 0.00 69 1014.7
20260505052429 53 248 2.0 2.0 0.00 0.00 0.00 69 1014.8
20260505051926 54 245 2.0 2.0 0.00 0.00 0.00 68 1014.8
20260505051423 55 242 2.0 3.0 0.00 0.00 0.00 67 1014.8
20260505050921 55 244 3.0 3.0 0.00 0.00 0.00 66 1015.1
20260505050419 55 250 2.0 3.0 0.00 0.00 0.00 65 1014.9
20260505041347 55 244 2.0 3.0 0.00 0.00 0.00 66 1014.9
20260505040844 56 242 3.0 4.0 0.00 0.00 0.00 64 1015.1
20260505040341 55 244 4.0 4.0 0.00 0.00 0.00 64 1014.8
20260505035838 56 240 2.0 3.0 0.00 0.00 0.00 65 1014.8
20260505035334 55 264 4.0 4.0 0.00 0.00 0.00 65 1014.8
20260505034831 54 233 2.0 3.0 0.00 0.00 0.00 68 1014.9
20260505034328 54 239 3.0 3.0 0.00 0.00 0.00 69 1014.8
20260505033825 54 240 2.0 3.0 0.00 0.00 0.00 69 1014.7
20260505033322 53 241 2.0 2.0 0.00 0.00 0.00 70 1014.9
20260505032820 53 241 2.0 2.0 0.00 0.00 0.00 70 1015.1
20260505032316 54 241 1.0 2.0 0.00 0.00 0.00 69 1014.9
20260505031813 54 241 2.0 2.0 0.00 0.00 0.00 69 1015.1
20260505031309 54 241 2.0 2.0 0.00 0.00 0.00 69 1014.9
20260505030807 54 242 2.0 3.0 0.00 0.00 0.00 68 1014.8
20260505030303 53 240 2.0 2.0 0.00 0.00 0.00 70 1015.1
20260505025758 52 246 1.0 3.0 0.00 0.00 0.00 73 1015.2
20260505025256 52 240 2.0 2.0 0.00 0.00 0.00 74 1015.2
20260505024754 52 240 2.0 2.0 0.00 0.00 0.00 72 1015.5
20260505024251 53 240 2.0 3.0 0.00 0.00 0.00 71 1015.2
20260505023749 53 240 2.0 2.0 0.00 0.00 0.00 71 1015.3
20260505023246 53 240 1.0 2.0 0.00 0.00 0.00 71 1015.4
20260505022743 53 240 2.0 2.0 0.00 0.00 0.00 71 1015.2
20260505022240 53 240 1.0 2.0 0.00 0.00 0.00 70 1015.3
20260505021736 54 240 2.0 2.0 0.00 0.00 0.00 68 1015.3
20260505021234 54 240 2.0 2.0 0.00 0.00 0.00 68 1015.3
20260505020729 54 240 1.0 2.0 0.00 0.00 0.00 68 1015.4
20260505020225 55 240 1.0 3.0 0.00 0.00 0.00 66 1015.5
20260505015723 55 240 2.0 3.0 0.00 0.00 0.00 66 1015.6
20260505015219 55 241 2.0 3.0 0.00 0.00 0.00 66 1015.3
20260505014716 55 244 2.0 3.0 0.00 0.00 0.00 66 1015.2
20260505014214 56 244 2.0 3.0 0.00 0.00 0.00 66 1015.1
20260505013710 57 244 2.0 4.0 0.00 0.00 0.00 63 1015.1
20260505013207 57 238 3.0 3.0 0.00 0.00 0.00 62 1015.3
20260505012706 57 238 2.0 3.0 0.00 0.00 0.00 62 1014.9
20260505012203 57 238 2.0 3.0 0.00 0.00 0.00 62 1014.9
20260505011658 58 237 2.0 3.0 0.00 0.00 0.00 61 1014.7
20260505011155 58 238 3.0 3.0 0.00 0.00 0.00 61 1014.8
20260505010650 59 255 2.0 3.0 0.00 0.00 0.00 60 1014.8
20260505010148 59 248 2.0 3.0 0.00 0.00 0.00 60 1014.6
20260505005644 59 249 2.0 4.0 0.00 0.00 0.00 60 1014.6
20260505005141 59 250 2.0 3.0 0.00 0.00 0.00 60 1014.6
20260505004638 60 265 4.0 4.0 0.00 0.00 0.00 59 1014.6
20260505004134 60 252 4.0 6.0 0.00 0.00 0.00 57 1014.6
20260505003632 60 290 5.0 6.0 0.00 0.00 0.00 58 1014.6
20260505003129 60 249 3.0 4.0 0.00 0.00 0.00 56 1014.2
20260505002625 60 304 5.0 9.0 0.00 0.00 0.00 56 1014.5
20260505002124 60 256 4.0 6.0 0.00 0.00 0.00 57 1014.5
20260505001620 60 259 3.0 6.0 0.00 0.00 0.00 58 1014.7
20260505001118 60 252 4.0 4.0 0.00 0.00 0.00 57 1014.6
20260505000615 61 255 2.0 4.0 0.00 0.00 0.00 57 1014.4
20260505000113 61 264 3.0 4.0 0.00 0.00 0.00 56 1014.3
20260504235609 61 249 3.0 4.0 0.00 0.00 0.00 56 1014.3
20260504235105 62 271 4.0 4.0 0.00 0.00 0.00 55 1014.2
20260504234602 62 268 3.0 6.0 0.00 0.00 0.00 54 1014.4
20260504234101 62 268 6.0 8.0 0.00 0.00 0.00 53 1014.1
20260504233601 62 264 3.0 4.0 0.00 0.00 0.00 54 1014.1
20260504233058 62 255 5.0 7.0 0.00 0.00 0.00 54 1014.3
20260504232555 62 280 7.0 10.0 0.00 0.00 0.00 53 1014.2
20260504232052 62 275 6.0 9.0 0.00 0.00 0.00 53 1014.2
20260504231549 62 266 6.0 8.0 0.00 0.00 0.00 53 1014.3
20260504231045 63 280 7.0 10.0 0.00 0.00 0.00 53 1014.4
20260504230541 64 276 5.0 14.0 0.00 0.00 0.00 52 1014.4
20260504230040 64 289 8.0 13.0 0.00 0.00 0.00 51 1014.5
20260504225537 63 287 11.0 13.0 0.00 0.00 0.00 52 1014.3
20260504225034 63 248 4.0 9.0 0.00 0.00 0.00 53 1014.4
20260504224530 64 272 8.0 10.0 0.00 0.00 0.00 52 1014.3
20260504224028 64 241 5.0 7.0 0.00 0.00 0.00 52 1014.4
20260504223524 64 258 4.0 8.0 0.00 0.00 0.00 52 1014.3
20260504223020 64 271 9.0 13.0 0.00 0.00 0.00 52 1014.4
20260504222517 64 265 10.0 14.0 0.00 0.00 0.00 51 1014.3
20260504222015 65 240 9.0 13.0 0.00 0.00 0.00 50 1014.1
20260504221512 65 248 5.0 10.0 0.00 0.00 0.00 50 1014.4
20260504221009 65 269 5.0 6.0 0.00 0.00 0.00 50 1014.4
20260504220505 67 283 7.0 8.0 0.00 0.00 0.00 47 1014.4
20260504220002 66 268 6.0 9.0 0.00 0.00 0.00 48 1014.5
20260504215459 65 294 4.0 9.0 0.00 0.00 0.00 49 1014.4
20260504214956 65 251 8.0 9.0 0.00 0.00 0.00 49 1014.4
20260504214452 65 275 5.0 8.0 0.00 0.00 0.00 49 1014.3
20260504213948 66 273 7.0 13.0 0.00 0.00 0.00 48 1014.5
20260504213444 66 257 4.0 8.0 0.00 0.00 0.00 49 1014.3
20260504212942 66 290 6.0 9.0 0.00 0.00 0.00 47 1014.4
20260504212438 68 258 5.0 10.0 0.00 0.00 0.00 45 1014.4
20260504211936 68 283 6.0 9.0 0.00 0.00 0.00 45 1014.3
20260504211432 68 248 6.0 13.0 0.00 0.00 0.00 43 1014.3
20260504210929 68 265 9.0 14.0 0.00 0.00 0.00 45 1014.3
20260504210426 66 246 4.0 10.0 0.00 0.00 0.00 45 1014.2
20260504205923 66 264 7.0 8.0 0.00 0.00 0.00 46 1014.1
20260504205421 67 256 7.0 9.0 0.00 0.00 0.00 46 1014.2
20260504204919 67 243 10.0 14.0 0.00 0.00 0.00 45 1014.2
20260504204417 69 288 6.0 9.0 0.00 0.00 0.00 43 1014.0
20260504203916 70 248 4.0 11.0 0.00 0.00 0.00 44 1014.1
20260504203413 69 240 10.0 11.0 0.00 0.00 0.00 41 1014.0
20260504202908 67 260 7.0 11.0 0.00 0.00 0.00 44 1014.1
20260504202406 67 229 6.0 11.0 0.00 0.00 0.00 45 1013.9
20260504201902 67 272 8.0 9.0 0.00 0.00 0.00 45 1014.0
20260504201400 69 282 6.0 13.0 0.00 0.00 0.00 44 1014.0
20260504200857 67 283 7.0 13.0 0.00 0.00 0.00 46 1014.1
20260504200354 68 274 5.0 9.0 0.00 0.00 0.00 45 1014.1
20260504195850 67 249 4.0 6.0 0.00 0.00 0.00 48 1014.2
20260504195345 68 248 5.0 7.0 0.00 0.00 0.00 45 1014.3
20260504194843 69 292 8.0 10.0 0.00 0.00 0.00 45 1014.4
20260504194339 69 261 7.0 9.0 0.00 0.00 0.00 44 1014.3
20260504193835 69 230 4.0 8.0 0.00 0.00 0.00 46 1014.5
20260504193332 67 235 5.0 11.0 0.00 0.00 0.00 47 1014.7
20260504192831 66 237 10.0 11.0 0.00 0.00 0.00 46 1014.6
20260504192328 67 264 7.0 13.0 0.00 0.00 0.00 46 1014.5
20260504191827 68 255 11.0 15.0 0.00 0.00 0.00 45 1014.8
20260504191324 67 235 5.0 9.0 0.00 0.00 0.00 46 1014.6
20260504190819 67 272 7.0 10.0 0.00 0.00 0.00 46 1014.7
20260504190316 66 245 11.0 14.0 0.00 0.00 0.00 46 1014.5
20260504185812 66 251 9.0 14.0 0.00 0.00 0.00 48 1014.9
20260504185309 66 271 6.0 10.0 0.00 0.00 0.00 50 1014.9
20260504184805 66 249 5.0 10.0 0.00 0.00 0.00 47 1014.6
20260504184301 66 242 6.0 11.0 0.00 0.00 0.00 49 1014.7
20260504183757 67 232 5.0 8.0 0.00 0.00 0.00 47 1014.9
20260504183254 65 242 7.0 11.0 0.00 0.00 0.00 51 1015.1
20260504182752 66 234 4.0 7.0 0.00 0.00 0.00 50 1014.8
20260504110334 44 237 2.0 2.0 0.00 0.00 0.00 70 1017.1
20260504100252 46 252 1.0 2.0 0.00 0.00 0.00 65 1017.2
20260504081645 46 248 4.0 4.0 0.00 0.00 0.00 54 1017.2
20260504081141 46 266 4.0 6.0 0.00 0.00 0.00 53 1017.5
20260504080638 45 258 3.0 4.0 0.00 0.00 0.00 55 1017.4
20260504080134 45 248 3.0 4.0 0.00 0.00 0.00 54 1017.4